Total_Precipitation_Accumulation
0.15 0.17 0.23 0.44 0.49 0.40 0.40 0.40 0.47 0.43 0.46 0.54 0.60 0.64 0.66 0.67 0.59 0.50 0.45 0.42 0.39 0.36 0.37 0.39 0.44 0.51 0.60 0.90 1.10 1.11 1.11 0.98 0.88 0.80 0.72 0.68 0.66 0.66 0.61 0.56 0.55 0.55 0.62 0.71
0.13 0.13 0.15 0.18 0.13 0.12 0.15 0.21 0.28 0.32 0.42 0.47 0.49 0.51 0.56 0.56 0.42 0.37 0.34 0.33 0.33 0.31 0.28 0.26 0.27 0.33 0.41 0.59 0.76 0.86 0.91 0.87 0.75 0.72 0.65 0.57 0.61 0.68 0.67 0.55 0.50 0.51 0.54 0.52
0.17 0.13 0.14 0.13 0.08 0.13 0.17 0.19 0.23 0.33 0.45 0.50 0.52 0.58 0.88 0.92 0.60 0.42 0.38 0.34 0.36 0.35 0.32 0.30 0.27 0.27 0.29 0.35 0.45 0.54 0.60 0.62 0.52 0.52 0.63 0.66 0.67 0.66 0.58 0.48 0.49 0.48 0.43 0.38
0.22 0.20 0.22 0.13 0.08 0.13 0.16 0.16 0.16 0.18 0.21 0.27 0.39 0.53 0.70 0.79 0.64 0.46 0.43 0.36 0.33 0.31 0.29 0.27 0.25 0.25 0.26 0.26 0.29 0.33 0.32 0.31 0.28 0.37 0.51 0.54 0.50 0.47 0.42 0.41 0.45 0.51 0.43 0.40
0.26 0.34 0.27 0.09 0.06 0.09 0.11 0.09 0.07 0.09 0.09 0.11 0.15 0.17 0.18 0.23 0.27 0.24 0.20 0.17 0.15 0.13 0.13 0.12 0.13 0.14 0.14 0.11 0.13 0.14 0.13 0.14 0.17 0.19 0.23 0.24 0.22 0.24 0.30 0.37 0.41 0.37 0.40 0.54
0.27 0.33 0.25 0.10 0.05 0.05 0.09 0.13 0.06 0.05 0.04 0.05 0.08 0.13 0.12 0.17 0.12 0.06 0.05 0.05 0.07 0.09 0.09 0.09 0.10 0.12 0.11 0.10 0.10 0.10 0.12 0.13 0.14 0.15 0.18 0.18 0.19 0.20 0.23 0.26 0.32 0.34 0.38 0.52
0.22 0.30 0.17 0.06 0.05 0.07 0.13 0.13 0.05 0.04 0.03 0.03 0.04 0.06 0.06 0.12 0.10 0.03 0.05 0.06 0.07 0.08 0.08 0.09 0.09 0.11 0.10 0.09 0.11 0.15 0.16 0.14 0.13 0.14 0.16 0.22 0.26 0.25 0.24 0.23 0.25 0.29 0.33 0.39
0.18 0.23 0.17 0.06 0.06 0.10 0.10 0.06 0.05 0.05 0.04 0.03 0.04 0.04 0.04 0.07 0.08 0.04 0.05 0.06 0.09 0.09 0.09 0.11 0.12 0.11 0.12 0.10 0.13 0.17 0.16 0.15 0.15 0.16 0.19 0.22 0.30 0.32 0.28 0.26 0.24 0.25 0.30 0.37
0.18 0.15 0.10 0.07 0.07 0.08 0.07 0.06 0.05 0.06 0.05 0.04 0.03 0.03 0.03 0.06 0.11 0.06 0.05 0.06 0.08 0.10 0.12 0.12 0.13 0.14 0.14 0.15 0.16 0.17 0.17 0.17 0.18 0.19 0.21 0.22 0.25 0.27 0.29 0.28 0.28 0.29 0.31 0.35
0.14 0.10 0.07 0.08 0.09 0.08 0.06 0.05 0.04 0.05 0.06 0.06 0.06 0.05 0.05 0.06 0.10 0.09 0.07 0.06 0.06 0.08 0.11 0.15 0.17 0.18 0.19 0.20 0.22 0.21 0.20 0.20 0.19 0.21 0.24 0.26 0.28 0.29 0.32 0.34 0.34 0.34 0.35 0.38
0.13 0.09 0.07 0.08 0.10 0.11 0.08 0.06 0.05 0.06 0.07 0.08 0.09 0.09 0.07 0.06 0.07 0.08 0.10 0.09 0.07 0.07 0.09 0.13 0.17 0.19 0.21 0.22 0.23 0.24 0.24 0.24 0.24 0.24 0.26 0.29 0.33 0.35 0.33 0.34 0.36 0.34 0.36 0.39
0.12 0.08 0.09 0.08 0.09 0.11 0.12 0.10 0.07 0.06 0.06 0.07 0.08 0.08 0.07 0.08 0.07 0.08 0.08 0.08 0.09 0.09 0.09 0.10 0.12 0.13 0.16 0.17 0.19 0.21 0.25 0.26 0.24 0.27 0.31 0.32 0.33 0.32 0.33 0.34 0.36 0.35 0.33 0.36
0.07 0.07 0.07 0.07 0.07 0.08 0.11 0.11 0.08 0.06 0.07 0.08 0.09 0.10 0.10 0.10 0.10 0.09 0.09 0.08 0.10 0.11 0.11 0.10 0.09 0.11 0.13 0.15 0.18 0.21 0.22 0.22 0.22 0.24 0.25 0.28 0.30 0.30 0.33 0.34 0.34 0.34 0.33 0.34
0.06 0.06 0.07 0.07 0.07 0.07 0.09 0.10 0.08 0.07 0.08 0.09 0.10 0.12 0.14 0.14 0.13 0.12 0.11 0.10 0.12 0.11 0.12 0.11 0.10 0.11 0.13 0.14 0.18 0.21 0.23 0.28 0.26 0.23 0.24 0.25 0.25 0.26 0.31 0.34 0.36 0.34 0.34 0.33
0.05 0.05 0.06 0.06 0.06 0.06 0.07 0.09 0.09 0.09 0.10 0.11 0.11 0.13 0.16 0.15 0.14 0.15 0.15 0.13 0.11 0.10 0.12 0.13 0.13 0.13 0.13 0.12 0.14 0.18 0.22 0.26 0.30 0.28 0.27 0.28 0.28 0.25 0.25 0.29 0.32 0.33 0.33 0.32
0.08 0.05 0.05 0.04 0.05 0.05 0.06 0.09 0.11 0.12 0.11 0.12 0.12 0.14 0.16 0.16 0.15 0.16 0.18 0.16 0.14 0.12 0.12 0.13 0.13 0.15 0.16 0.15 0.16 0.16 0.19 0.26 0.30 0.32 0.31 0.29 0.30 0.28 0.25 0.24 0.25 0.26 0.28 0.31
0.13 0.10 0.09 0.08 0.07 0.06 0.06 0.08 0.11 0.13 0.13 0.13 0.14 0.15 0.15 0.15 0.14 0.14 0.16 0.16 0.15 0.13 0.14 0.13 0.14 0.16 0.18 0.17 0.16 0.15 0.17 0.22 0.30 0.34 0.31 0.29 0.29 0.29 0.28 0.27 0.26 0.27 0.28 0.31
0.13 0.13 0.11 0.11 0.10 0.08 0.06 0.06 0.08 0.11 0.13 0.13 0.12 0.12 0.14 0.15 0.15 0.14 0.14 0.15 0.15 0.13 0.13 0.14 0.14 0.16 0.16 0.16 0.16 0.17 0.18 0.21 0.26 0.30 0.34 0.34 0.31 0.29 0.29 0.28 0.27 0.28 0.29 0.30
0.11 0.11 0.10 0.09 0.09 0.08 0.07 0.07 0.07 0.08 0.09 0.11 0.11 0.10 0.11 0.13 0.14 0.13 0.13 0.13 0.13 0.12 0.12 0.12 0.16 0.17 0.16 0.18 0.19 0.20 0.23 0.24 0.27 0.30 0.33 0.37 0.37 0.33 0.33 0.34 0.33 0.33 0.34 0.32
0.09 0.08 0.08 0.08 0.08 0.09 0.09 0.08 0.08 0.08 0.09 0.09 0.09 0.10 0.10 0.11 0.13 0.14 0.13 0.12 0.13 0.14 0.12 0.12 0.11 0.12 0.12 0.15 0.20 0.23 0.27 0.28 0.28 0.28 0.30 0.32 0.34 0.36 0.37 0.38 0.38 0.37 0.36 0.35
0.10 0.08 0.08 0.07 0.07 0.08 0.09 0.09 0.07 0.07 0.07 0.08 0.09 0.09 0.10 0.11 0.14 0.17 0.16 0.15 0.15 0.14 0.13 0.14 0.12 0.13 0.15 0.18 0.19 0.19 0.24 0.28 0.29 0.30 0.31 0.33 0.35 0.37 0.40 0.43 0.43 0.43 0.44 0.45
0.11 0.10 0.09 0.08 0.07 0.07 0.06 0.07 0.07 0.06 0.06 0.07 0.08 0.09 0.09 0.10 0.12 0.14 0.17 0.20 0.21 0.22 0.17 0.15 0.15 0.18 0.22 0.26 0.23 0.22 0.24 0.28 0.32 0.34 0.36 0.39 0.41 0.40 0.43 0.46 0.47 0.47 0.47 0.47
0.12 0.12 0.11 0.10 0.09 0.08 0.06 0.06 0.05 0.05 0.05 0.06 0.08 0.10 0.12 0.13 0.13 0.16 0.20 0.23 0.24 0.25 0.23 0.23 0.26 0.27 0.29 0.27 0.25 0.24 0.25 0.29 0.33 0.34 0.36 0.41 0.44 0.46 0.46 0.48 0.50 0.51 0.51 0.50
0.14 0.13 0.14 0.14 0.13 0.12 0.10 0.08 0.07 0.07 0.06 0.07 0.08 0.10 0.13 0.16 0.17 0.20 0.23 0.28 0.30 0.30 0.25 0.25 0.30 0.33 0.34 0.30 0.27 0.25 0.26 0.29 0.33 0.35 0.36 0.38 0.41 0.43 0.46 0.50 0.56 0.58 0.59 0.61
0.16 0.17 0.19 0.19 0.19 0.19 0.17 0.15 0.12 0.11 0.11 0.10 0.11 0.12 0.13 0.15 0.18 0.21 0.24 0.26 0.29 0.29 0.25 0.26 0.29 0.31 0.28 0.27 0.28 0.27 0.26 0.28 0.31 0.33 0.34 0.37 0.39 0.42 0.46 0.49 0.55 0.62 0.66 0.68
0.16 0.17 0.21 0.22 0.21 0.20 0.19 0.18 0.18 0.17 0.16 0.15 0.13 0.12 0.12 0.12 0.13 0.16 0.20 0.23 0.27 0.30 0.28 0.26 0.26 0.27 0.25 0.26 0.27 0.29 0.28 0.28 0.28 0.29 0.31 0.36 0.38 0.39 0.43 0.46 0.50 0.57 0.63 0.65
0.21 0.20 0.21 0.24 0.25 0.23 0.21 0.22 0.24 0.24 0.22 0.20 0.19 0.17 0.16 0.16 0.16 0.16 0.17 0.19 0.22 0.27 0.29 0.30 0.29 0.28 0.28 0.28 0.28 0.31 0.33 0.34 0.35 0.36 0.37 0.39 0.42 0.44 0.47 0.49 0.52 0.56 0.59 0.60